Left ArrowRight Arrow

44.5394, -95.11694

Hourly Observations for May 25, 2024

Temp ( °F °C ) Dew Point ( °F °C ) Humidity (%) Winds ( mph kmh ) Pressure ( in mb ) Visibility ( mi km ) Precip ( " mm )
12:53 am 00:53 Clear 47 8.3 43 6.1 86 86 S 9 15 29.75 1008 10 16 0.00 0.00
1:53 am 01:53 Clear 47 8.3 43 6.1 86 86 S 10 17 29.75 1008 10 16 0.00 0.00
2:53 am 02:53 Clear 47 8.3 43 6.1 86 86 S 10 17 29.75 1007 10 16 0.00 0.00
3:53 am 03:53 Clear 47 8.3 43 6.1 86 86 S 9 15 29.74 1007 10 16 0.00 0.00
4:53 am 04:53 Clear 48 8.9 43 6.1 83 83 SSW 10 17 29.75 1008 10 16 0.00 0.00
5:53 am 05:53 Sunny 47 8.3 43 6.1 86 86 S 9 15 29.76 1008 10 16 0.00 0.00
6:53 am 06:53 Sunny 50 10 44 6.7 80 80 S 7 11 29.76 1008 10 16 0.00 0.00
7:53 am 07:53 Sunny 54 12.2 46 7.8 74 74 SSE 9 15 29.75 1008 10 16 0.00 0.00
8:53 am 08:53 Sunny 61 16.1 47 8.3 60 60 SSW 17 28 29.74 1007 10 16 0.00 0.00
9:53 am 09:53 Sunny 65 18.3 48 8.9 54 54 SSW 17 28 29.75 1007 10 16 0.00 0.00
10:53 am 10:53 Sunny 69 20.6 50 10 51 51 SW 28 44 29.73 1007 10 16 0.00 0.00
11:53 am 11:53 Sunny 70 21.1 51 10.6 51 51 SSW 22 35 29.74 1007 10 16 0.00 0.00
12:53 pm 12:53 Mostly Cloudy 68 20 51 10.6 55 55 SSW 23 37 29.74 1007 10 16 0.00 0.00
1:53 pm 13:53 Sunny 68 20 51 10.6 55 55 SSW 21 33 29.73 1007 10 16 0.00 0.00
2:53 pm 14:53 Cloudy with Light Rain 64 17.8 53 11.7 67 67 SSW 15 24 29.76 1008 7 11 0.01 0.13
3:53 pm 15:53 Mostly Cloudy 66 18.9 53 11.7 63 63 Calm 29.71 1006 10 16 0.01 0.13
4:53 pm 16:53 Sunny 68 20 53 11.7 59 59 S 10 17 29.72 1006 10 16 0.00 0.00
5:53 pm 17:53 Sunny 68 20 54 12.2 61 61 S 10 17 29.71 1006 10 16 0.00 0.00
6:53 pm 18:53 Sunny 70 21.1 54 12.2 57 57 SSE 9 15 29.70 1006 10 16 0.00 0.00
7:53 pm 19:53 Sunny 66 18.9 56 13.3 70 70 Calm 29.70 1006 10 16 0.00 0.00
8:53 pm 20:53 Clear 67 19.4 54 12.2 63 63 E 6 9 29.70 1006 10 16 0.00 0.00
9:53 pm 21:53 Mostly Clear 64 17.8 54 12.2 70 70 E 9 15 29.68 1005 10 16 0.00 0.00
10:53 pm 22:53 Clear 62 16.7 54 12.2 75 75 NNW 9 15 29.68 1005 10 16 0.00 0.00
11:53 pm 23:53 Mostly Cloudy 62 16.7 53 11.7 72 72 NNE 3 6 29.70 1006 10 16 0.00 0.00

Powered by Vaisala Xweather